Flag for Brazil Weather past 2 weeks in Rio Grande, Rio Grande do Sul, Brazil

Now
70 °F

Scattered clouds.


Feels Like: 70 °F
Forecast: 65 / 74 °F
Wind: 20 mph from Southwest

Location: Pelotas Airport

Current Time: Dec 22, 2014 at 1:04:51 PM

Latest Report: Dec 22, 2014 at 12:00 PM


Visibility: N/A

Pressure: 29.98 "Hg

Humidity: 64%

Dew point: 57 °F

Location of Rio GrandeLocation

Historic Weather in Rio Grande — Graph

°F

Rio Grande temperature yesterday

Maximum temperature yesterday: 77 °F (at 4:00 PM)
Minimum temperature yesterday: 66 °F (at 10:00 PM)
Average temperature yesterday: 70 °F

Past Weeks' High & Low Weather Summary

 TemperatureHumidityPressure
High91 °F (Dec 7, 12:00 PM)100% (Dec 8, 12:00 AM)30.27 "Hg (Dec 8, 12:00 AM)
Low59 °F (Dec 15, 2:00 AM)27% (Dec 19, 4:00 PM)29.50 "Hg (Dec 21, 4:00 PM)
Average73 °F82%29.86 "Hg
* Reported Dec 7 12:00 Noon — Dec 22 12:00 Noon, Rio Grande, Weather by CustomWeather, © 2014

Note: Actual official high and low records may vary slightly from our data, if they occured in-between our weather recording intervals... More about our weather records

Advertising

Rio Grande weather history for previous 24 hours

 ConditionsComfort  
Time TempWeatherWind HumidityBarometerVisibility
12:00 PM
Dec 22
70 °FScattered clouds.20 mph64%29.98 "HgN/A
11:00 AM68 °FScattered clouds.15 mph73%29.98 "HgN/A
10:00 AM66 °FScattered clouds.16 mph83%29.98 "HgN/A
9:00 AM64 °FSunny.9 mph83%29.95 "Hg10 mi
8:00 AM61 °FSunny.16 mph88%29.92 "Hg10 mi
7:00 AM59 °FSunny.10 mph94%29.89 "Hg10 mi
6:00 AM61 °FPassing clouds.10 mph88%29.86 "HgN/A
5:00 AM61 °FPassing clouds.14 mph88%29.83 "HgN/A
4:00 AM63 °FPassing clouds.12 mph88%29.83 "HgN/A
3:00 AM63 °FPassing clouds.12 mph94%29.80 "HgN/A
2:00 AM63 °FPassing clouds.14 mph100%29.77 "Hg5 mi
1:00 AM66 °FPassing clouds.10 mph94%29.71 "Hg5 mi
12:00 AM64 °FPassing clouds.14 mph100%29.74 "Hg4 mi
11:00 PM
Dec 21
66 °FPassing clouds.10 mph100%29.71 "HgN/A
10:00 PM66 °FPassing clouds.12 mph100%29.65 "HgN/A
9:00 PM68 °FOvercast.16 mph94%29.62 "HgN/A
5:45 PM75 °FBroken clouds.9 mph83%29.53 "HgN/A
5:00 PM73 °FPartly sunny.9 mph83%29.53 "HgN/A
4:00 PM77 °FPartly sunny.2 mph79%29.50 "HgN/A
3:00 PM75 °FMostly cloudy.3 mph83%29.53 "HgN/A
Weather by CustomWeather, © 2014

See weather overviewHow to use our weather pages